Weather History for KFRM - February, 2013

Change the Weather History Date:

Saturday, February 9, 2013

  Actual Average Record
Temperature  
Mean Temperature 34 °F -  
Max Temperature 39 °F 26 °F 57 °F (1977)
Min Temperature 28 °F 6 °F -24 °F (1951)
Degree Days  
Heating Degree Days 32    
Moisture  
Dew Point 24 °F    
Average Humidity 68    
Maximum Humidity 75    
Minimum Humidity 61    
Precipitation  
Precipitation 0.00 in - - ()
Sea Level Pressure  
Sea Level Pressure 30.00 in    
Wind  
Wind Speed 20 mph (SSE)    
Max Wind Speed 26 mph    
Max Gust Speed 32 mph    
Visibility 7 miles    
Events      
Averages and records for this station are not official NWS values.
T = Trace of Precipitation, MM = Missing Value Source: NWS Daily Summary

Daily Weather History Graph

Daily Weather History Graph

Search for Another Location

Airport or City:

Trip Planner

Search our weather history database for the weather conditions in past years. The results will help you decide how hot, cold, wet, or windy it might be!

Date:

Astronomy

Feb. 09, 2013 Rise Set
Actual Time 7:24 AM CST 5:40 PM CST
Civil Twilight 6:54 AM CST 6:10 PM CST
Nautical Twilight 6:20 AM CST 6:43 PM CST
Astronomical Twilight 5:47 AM CST 7:17 PM CST
Moon 6:36 AM CST (2/9) 5:25 PM CST (2/9)
Length of Visible Light 11h 15m
Length of Day
10h 16m
Waning Crescent, 0% of the Moon is Illuminated
Feb 9
Waning Crescent
Feb 10
New
Feb 17
First Quarter
Feb 25
Full
Mar 4
Last Quarter

Hourly Weather History & Observations

Time (CST) Temp. Windchill Dew Point Humidity Pressure Visibility Wind Dir Wind Speed Gust Speed Precip Events Conditions
12:15 AM 30.2 °F 18.1 °F 21.2 °F 69% 30.19 in 8.0 mi SSE 18.4 mph - N/A   Overcast
12:35 AM 30.2 °F 17.4 °F 21.2 °F 69% 30.19 in 7.0 mi South 20.7 mph 26.5 mph N/A   Overcast
12:55 AM 30.2 °F 18.1 °F 21.2 °F 69% 30.19 in 7.0 mi SSE 18.4 mph - N/A   Overcast
1:15 AM 30.2 °F 18.5 °F 21.2 °F 69% 30.18 in 10.0 mi South 17.3 mph - N/A   Overcast
1:35 AM 28.4 °F 14.7 °F 21.2 °F 74% 30.16 in 8.0 mi South 21.9 mph - N/A   Overcast
1:55 AM 28.4 °F 15.4 °F 21.2 °F 74% 30.16 in 8.0 mi SSE 19.6 mph - N/A   Overcast
2:15 AM 28.4 °F 14.1 °F 21.2 °F 74% 30.15 in 8.0 mi South 24.2 mph - N/A   Overcast
2:35 AM 28.4 °F 14.7 °F 21.2 °F 74% 30.15 in 8.0 mi South 21.9 mph - N/A   Overcast
2:55 AM 28.4 °F 15.4 °F 21.2 °F 74% 30.15 in 8.0 mi South 19.6 mph 25.3 mph N/A   Overcast
3:15 AM 28.4 °F 14.7 °F 21.2 °F 74% 30.13 in 8.0 mi SSE 21.9 mph - N/A   Overcast
3:35 AM 28.4 °F 14.1 °F 21.2 °F 74% 30.12 in 8.0 mi SSE 24.2 mph 28.8 mph N/A   Overcast
3:55 AM 28.4 °F 15.1 °F 21.2 °F 74% 30.11 in 7.0 mi SSE 20.7 mph 27.6 mph N/A   Overcast
4:15 AM 28.4 °F 13.5 °F 21.2 °F 74% 30.10 in 6.0 mi South 26.5 mph - N/A   Overcast
4:35 AM 28.4 °F 14.1 °F 21.2 °F 74% 30.09 in 6.0 mi South 24.2 mph 31.1 mph N/A   Overcast
4:55 AM 28.4 °F 15.1 °F 21.2 °F 74% 30.09 in 6.0 mi South 20.7 mph - N/A   Overcast
5:15 AM 28.4 °F 15.1 °F 21.2 °F 74% 30.09 in 7.0 mi South 20.7 mph 26.5 mph N/A   Overcast
5:35 AM 28.4 °F 15.1 °F 21.2 °F 74% 30.07 in 9.0 mi SSE 20.7 mph - N/A   Overcast
5:55 AM 30.2 °F 16.2 °F 21.2 °F 69% 30.06 in 10.0 mi South 25.3 mph 32.2 mph N/A   Overcast
6:15 AM 30.2 °F 15.9 °F 21.2 °F 69% 30.06 in 10.0 mi SSE 26.5 mph - N/A   Overcast
6:35 AM 30.2 °F 16.8 °F 21.2 °F 69% 30.07 in 10.0 mi South 23.0 mph 26.5 mph N/A   Overcast
6:55 AM 30.2 °F 16.2 °F 21.2 °F 69% 30.07 in 10.0 mi South 25.3 mph 32.2 mph N/A   Overcast
7:15 AM 30.2 °F 17.4 °F 21.2 °F 69% 30.07 in 10.0 mi South 20.7 mph 29.9 mph N/A   Overcast
7:35 AM 30.2 °F 16.2 °F 21.2 °F 69% 30.06 in 9.0 mi South 25.3 mph 31.1 mph N/A   Overcast
7:55 AM 30.2 °F 17.1 °F 21.2 °F 69% 30.07 in 9.0 mi South 21.9 mph - N/A   Overcast
8:15 AM 30.2 °F 17.8 °F 21.2 °F 69% 30.07 in 9.0 mi South 19.6 mph 28.8 mph N/A   Overcast
8:35 AM 30.2 °F 17.4 °F 21.2 °F 69% 30.07 in 8.0 mi South 20.7 mph - N/A   Overcast
8:55 AM 30.2 °F 16.8 °F 21.2 °F 69% 30.06 in 7.0 mi South 23.0 mph 27.6 mph N/A   Overcast
9:15 AM 30.2 °F 17.4 °F 23.0 °F 75% 30.05 in 7.0 mi South 20.7 mph 28.8 mph N/A   Overcast
9:35 AM 30.2 °F 17.1 °F 23.0 °F 75% 30.05 in 7.0 mi South 21.9 mph - N/A   Overcast
9:55 AM 32.0 °F 18.9 °F 23.0 °F 69% 30.06 in 6.0 mi South 24.2 mph 27.6 mph N/A   Overcast
10:15 AM 33.8 °F 20.8 °F 24.8 °F 70% 30.05 in 6.0 mi South 26.5 mph - N/A   Overcast
10:35 AM 33.8 °F 21.9 °F 24.8 °F 70% 30.04 in 6.0 mi South 21.9 mph 27.6 mph N/A   Overcast
10:55 AM 33.8 °F 22.5 °F 24.8 °F 70% 30.05 in 6.0 mi South 19.6 mph 26.5 mph N/A   Overcast
11:15 AM 33.8 °F 22.8 °F 24.8 °F 70% 30.04 in 7.0 mi South 18.4 mph - N/A   Overcast
11:35 AM 35.6 °F 24.2 °F 24.8 °F 65% 30.03 in 7.0 mi South 21.9 mph 28.8 mph N/A   Overcast
11:55 AM 35.6 °F 24.5 °F 24.8 °F 65% 30.02 in 7.0 mi SSE 20.7 mph 25.3 mph N/A   Overcast
12:15 PM 35.6 °F 25.2 °F 24.8 °F 65% 30.01 in 7.0 mi South 18.4 mph 27.6 mph N/A   Overcast
12:35 PM 37.4 °F 28.2 °F 26.6 °F 65% 30.00 in 7.0 mi South 16.1 mph 26.5 mph N/A   Overcast
12:55 PM 37.4 °F 27.8 °F 26.6 °F 65% 29.99 in 7.0 mi SSE 17.3 mph - N/A   Overcast
1:15 PM 37.4 °F 26.9 °F 26.6 °F 65% 29.97 in 7.0 mi SSE 20.7 mph - N/A   Overcast
1:35 PM 37.4 °F 26.6 °F 26.6 °F 65% 29.96 in 7.0 mi SSE 21.9 mph 25.3 mph N/A   Overcast
1:55 PM 37.4 °F 26.4 °F 26.6 °F 65% 29.95 in 7.0 mi SSE 23.0 mph 27.6 mph N/A   Overcast
2:15 PM 39.2 °F 30.2 °F 26.6 °F 61% 29.94 in 7.0 mi SSE 17.3 mph - N/A   Overcast
2:35 PM 39.2 °F 30.5 °F 26.6 °F 61% 29.93 in 7.0 mi SSE 16.1 mph 26.5 mph N/A   Overcast
2:55 PM 39.2 °F 29.8 °F 26.6 °F 61% 29.92 in 7.0 mi SSE 18.4 mph 21.9 mph N/A   Overcast
3:15 PM 39.2 °F 31.2 °F 26.6 °F 61% 29.92 in 7.0 mi SSE 13.8 mph - N/A   Overcast
3:35 PM 39.2 °F 31.2 °F 26.6 °F 61% 29.92 in 7.0 mi SSE 13.8 mph - N/A   Overcast
3:55 PM 39.2 °F 32.0 °F 28.4 °F 65% 29.91 in 7.0 mi SE 11.5 mph - N/A   Overcast
4:15 PM 39.2 °F 30.2 °F 26.6 °F 61% 29.90 in 8.0 mi SE 17.3 mph - N/A   Overcast
4:35 PM 39.2 °F 29.8 °F 28.4 °F 65% 29.89 in 7.0 mi SSE 18.4 mph - N/A   Overcast
4:55 PM 39.2 °F 30.2 °F 26.6 °F 61% 29.88 in 8.0 mi SE 17.3 mph - N/A   Overcast
5:15 PM 37.4 °F 28.5 °F 26.6 °F 65% 29.88 in 7.0 mi SE 15.0 mph - N/A   Overcast
5:35 PM 37.4 °F 27.8 °F 26.6 °F 65% 29.88 in 7.0 mi SE 17.3 mph - N/A   Overcast
5:55 PM 37.4 °F 27.8 °F 26.6 °F 65% 29.88 in 7.0 mi SE 17.3 mph 20.7 mph N/A   Overcast
6:15 PM 37.4 °F 27.2 °F 26.6 °F 65% 29.89 in 7.0 mi SSE 19.6 mph 24.2 mph N/A   Overcast
6:35 PM 37.4 °F 27.2 °F 26.6 °F 65% 29.90 in 7.0 mi SE 19.6 mph - N/A   Overcast
6:55 PM 37.4 °F 28.2 °F 26.6 °F 65% 29.89 in 6.0 mi SE 16.1 mph - N/A   Overcast
7:35 PM 35.6 °F 24.2 °F 26.6 °F 70% 29.88 in 6.0 mi SSE 21.9 mph 28.8 mph N/A   Overcast
7:55 PM 35.6 °F 24.5 °F 26.6 °F 70% 29.89 in 7.0 mi SSE 20.7 mph 29.9 mph N/A   Overcast
8:15 PM 35.6 °F 25.2 °F 26.6 °F 70% 29.89 in 6.0 mi SSE 18.4 mph 24.2 mph N/A   Overcast
8:35 PM 35.6 °F 26.2 °F 26.6 °F 70% 29.90 in 6.0 mi SE 15.0 mph - N/A   Overcast
8:55 PM 35.6 °F 25.9 °F 24.8 °F 65% 29.90 in 6.0 mi SSE 16.1 mph 23.0 mph N/A   Overcast
9:15 PM 35.6 °F 25.5 °F 24.8 °F 65% 29.89 in 5.0 mi SE 17.3 mph - N/A   Overcast
9:35 PM 35.6 °F 26.6 °F 24.8 °F 65% 29.88 in 6.0 mi SE 13.8 mph - N/A   Overcast
9:55 PM 35.6 °F 26.2 °F 24.8 °F 65% 29.87 in 6.0 mi SE 15.0 mph - N/A   Overcast
10:15 PM 35.6 °F 25.9 °F 24.8 °F 65% 29.87 in 7.0 mi SE 16.1 mph - N/A   Overcast
10:35 PM 35.6 °F 27.1 °F 24.8 °F 65% 29.85 in 7.0 mi SE 12.7 mph 19.6 mph N/A   Overcast
10:55 PM 33.8 °F 24.8 °F 24.8 °F 70% 29.85 in 7.0 mi SE 12.7 mph - N/A   Overcast
11:15 PM 33.8 °F 24.8 °F 24.8 °F 70% 29.85 in 7.0 mi SE 12.7 mph - N/A   Overcast
11:55 PM 33.8 °F 25.3 °F 24.8 °F 70% 29.84 in 6.0 mi SE 11.5 mph - N/A   Overcast